User: anonymous
Location: Unspecified
(0.0000°N, 0.0000°E)
Time: 11:35:30
(UTC+02:00)
Language:

CZ-4 R/B - Orbit

View from above orbital plane
View from above orbital plane
View from above satellite
View from above satellite

Ground track
Ground track

The orbit data is extracted from the following two-line orbital elements,

1 28059U 03049C   14106.61278063  .00000351  00000-0  97623-4 0   312
2 28059 098.6994 303.1137 0051073 168.6197 232.5253 14.52089524555651
Epoch (UTC): 16 April 2014 14:42:24
Eccentricity: 0.0051073
inclination: 98.6994°
perigee height: 682 km
apogee height: 755 km
right ascension of ascending node: 303.1137°
argument of perigee: 168.6197°
revolutions per day: 14.52089524
mean anomaly at epoch: 232.5253°
orbit number at epoch: 55565

The dashed part of the orbit path shows where the satellite is in the earth's shadow,  

DLR